Wind_Speed
13 11 10 10 10 9 10 12 12 11 10 12 14 18 22 26 29 32 34 36 39 42 45 47 48 50 51 51 47 44 39 30 23 18 18 19 20 19 21 23 23 22 22 21
10 7 7 7 6 8 10 14 17 18 18 17 19 23 27 30 33 35 37 40 42 42 42 43 45 45 44 45 42 36 32 27 23 19 20 21 21 20 21 22 22 22 21 21
8 6 5 5 6 8 11 14 17 21 22 24 25 27 30 33 36 38 39 39 38 37 37 39 40 39 40 39 37 35 33 29 26 24 22 21 21 20 19 20 20 20 19 19
9 6 4 5 6 8 10 13 16 18 22 24 26 29 31 32 35 37 37 37 36 35 35 36 37 37 37 37 36 34 33 30 29 27 24 24 21 19 18 18 18 19 19 19
8 5 3 1 2 5 8 10 12 13 14 16 19 23 25 27 31 32 34 34 34 32 33 35 36 37 38 39 38 36 35 33 32 30 29 27 25 24 23 22 21 21 21 21
5 4 1 3 4 7 10 11 10 9 9 11 14 18 21 22 25 25 26 29 29 29 32 35 37 39 42 42 42 41 40 38 36 35 34 33 32 31 30 29 27 27 26 25
2 4 2 1 4 6 9 10 8 7 10 13 16 19 22 22 22 23 22 23 25 29 33 36 39 42 44 45 46 46 45 44 43 42 41 39 38 38 38 37 36 35 34 32
5 2 2 4 7 7 10 12 13 12 14 17 19 21 23 24 27 27 29 31 32 35 38 41 44 46 47 47 48 48 48 48 47 47 46 45 45 44 44 44 44 44 43 41
7 6 6 9 10 11 14 16 18 17 18 20 22 22 24 26 29 31 34 36 39 42 45 48 50 53 53 53 53 52 51 50 50 50 51 51 51 51 50 50 49 49 49 49
10 9 8 10 12 15 18 19 18 18 20 22 24 26 28 30 32 35 38 40 43 46 49 52 55 57 58 59 60 60 59 57 56 55 55 55 56 56 56 55 55 54 54 54
12 11 11 12 14 15 17 17 16 18 21 24 26 28 31 34 36 39 42 44 46 48 50 53 56 58 61 64 66 67 68 67 66 65 63 62 61 61 61 61 60 59 59 58
12 12 13 14 16 17 17 17 18 20 22 24 28 33 37 40 42 44 46 48 50 53 55 57 59 61 64 67 70 72 73 74 73 71 69 67 66 65 65 65 65 65 64 63
12 12 12 13 14 17 17 17 19 20 22 26 31 36 39 41 44 46 48 51 54 57 59 61 64 66 68 70 71 70 70 69 68 66 63 60 57 56 57 58 61 64 67 68
14 13 12 11 12 14 15 16 18 20 24 28 33 36 38 41 44 47 50 53 56 58 61 64 66 68 67 65 63 62 62 61 59 57 54 50 47 44 42 43 45 50 56 63
14 13 12 13 14 15 15 17 20 23 27 30 33 35 39 43 46 49 52 55 58 61 63 65 65 62 59 58 58 57 57 56 54 52 50 46 43 41 38 36 36 37 40 45
12 12 13 15 17 16 15 18 22 26 28 29 32 36 40 44 47 49 52 56 59 61 61 60 58 55 55 55 55 56 56 56 55 53 50 48 45 43 41 38 37 35 35 35
12 12 14 17 20 19 19 23 26 29 30 33 37 41 44 46 49 52 56 59 60 59 57 54 53 53 55 56 57 58 58 58 57 56 54 52 50 48 45 43 40 38 36 34
15 17 20 21 22 23 24 27 30 33 35 37 40 44 47 51 52 55 58 58 56 54 52 52 52 54 56 58 60 60 60 60 59 58 56 54 53 51 49 47 44 42 40 37
18 20 22 24 26 27 28 31 33 36 38 40 43 46 49 52 52 53 55 55 53 52 52 52 54 56 58 60 61 61 61 60 59 57 55 53 52 52 51 48 46 44 43 41
19 20 22 25 27 29 31 33 35 38 39 42 45 48 51 54 56 55 54 52 51 50 51 52 55 57 59 61 62 61 58 56 54 52 50 48 48 50 50 48 46 45 43 41
17 20 23 26 28 30 33 36 37 38 41 44 48 52 55 57 58 56 53 50 49 49 51 53 56 58 60 61 61 58 55 52 48 45 43 42 43 45 46 46 44 43 42 41
19 22 25 28 30 32 34 36 38 41 44 47 50 53 55 56 56 54 51 48 47 49 51 54 57 58 59 60 59 55 51 48 44 40 37 36 37 39 40 41 40 39 39 39
20 23 26 28 30 32 35 38 42 44 46 48 51 53 54 55 55 53 50 47 47 49 52 55 58 58 59 59 57 52 49 45 41 36 32 29 29 30 32 34 35 35 35 34
20 22 24 27 29 33 36 39 41 43 44 47 50 53 54 55 54 53 49 46 47 49 52 55 57 58 58 57 54 51 48 43 39 33 28 24 22 22 24 26 28 29 30 30
20 22 23 25 29 33 35 37 39 41 44 47 50 52 54 55 54 52 49 46 46 49 51 55 57 58 58 56 53 49 46 43 38 33 27 21 18 15 16 18 20 23 24 26
21 23 25 28 30 32 34 36 39 42 45 48 51 52 53 55 54 51 48 45 45 48 50 54 56 58 58 55 51 47 45 43 39 34 28 20 15 10 9 10 14 17 19 22
Wind_Direction
252 241 231 241 244 242 235 228 227 226 232 233 236 236 237 240 246 253 261 268 274 278 283 287 290 292 295 301 305 304 305 297 281 267 267 276 281 286 288 288 287 286 286 284
228 225 226 215 226 250 244 240 235 230 234 234 233 233 236 239 247 256 262 267 272 277 282 285 289 295 300 304 309 311 315 313 304 301 302 295 288 285 284 283 282 280 278 276
220 232 214 222 253 266 253 248 242 237 238 243 247 249 252 253 258 262 267 270 273 277 283 287 292 298 303 305 309 315 318 322 317 314 316 311 296 284 280 280 279 275 271 269
237 237 245 265 277 286 276 261 259 252 249 250 256 265 269 271 272 272 273 275 276 278 284 289 292 296 300 305 310 314 316 317 316 313 312 313 301 287 281 279 275 272 268 264
261 246 247 296 330 334 316 295 287 274 262 261 265 277 286 288 284 279 275 277 277 280 283 288 292 296 301 306 309 312 313 313 311 309 305 304 298 291 285 278 273 268 263 259
274 232 141 53 22 339 323 316 305 284 279 283 286 291 304 309 298 290 283 281 281 285 287 289 293 298 302 305 308 309 309 308 306 302 299 295 290 287 283 279 274 268 263 259
271 210 199 0 345 332 320 320 310 290 298 305 305 308 314 317 315 316 315 311 306 301 297 295 297 300 303 305 306 306 306 304 302 299 295 290 285 281 277 274 272 269 266 261
78 97 280 306 320 318 318 316 316 319 326 324 321 322 322 319 318 320 320 316 311 308 304 302 302 302 302 303 303 302 301 299 297 295 291 288 284 279 275 271 268 266 264 262
35 16 330 322 319 312 311 309 308 311 318 321 323 325 322 320 319 319 318 315 313 310 309 308 307 306 306 305 303 300 298 295 293 290 287 284 280 277 274 270 267 264 261 259
6 360 334 319 309 305 308 307 305 302 311 317 320 322 321 322 321 320 318 316 313 312 311 309 309 308 307 306 304 302 299 296 293 290 286 282 278 275 272 269 266 263 260 258
345 338 323 312 306 305 310 313 313 311 311 314 318 321 323 323 321 319 318 316 315 313 311 310 309 308 307 306 305 303 301 299 296 292 288 284 279 274 270 267 264 262 259 257
338 329 319 311 307 304 308 314 316 319 317 314 316 318 322 322 321 321 321 319 317 315 314 313 312 310 308 307 305 304 303 301 299 297 293 289 284 278 272 267 262 259 257 256
336 326 317 307 302 304 312 319 322 321 317 312 315 319 321 321 322 323 322 320 318 317 316 315 313 311 309 307 306 304 303 303 302 301 299 296 291 285 277 270 263 258 254 253
342 338 333 323 316 318 322 322 320 317 316 317 319 321 322 323 324 323 322 319 318 318 316 315 312 310 308 307 305 304 303 303 302 301 300 298 296 291 284 276 268 261 255 252
351 352 349 343 342 341 330 323 321 322 323 324 325 325 326 326 326 325 323 321 320 318 316 313 311 309 308 307 306 304 302 300 299 297 295 294 293 291 287 281 276 271 263 257
352 357 358 354 353 353 344 334 328 327 327 328 328 328 329 329 328 326 323 321 320 318 316 315 313 312 310 309 307 305 302 299 296 293 289 287 285 283 281 278 275 272 268 264
350 358 3 358 353 350 344 336 332 332 334 335 334 332 331 332 332 330 326 325 323 321 320 318 317 315 313 311 308 305 301 297 293 288 285 281 278 277 276 275 273 270 266 263
354 359 358 353 348 348 343 339 339 338 338 337 335 335 335 335 334 332 327 325 324 323 323 322 321 319 316 313 309 306 302 297 292 287 282 277 274 272 270 269 268 267 265 262
356 353 350 346 344 343 342 342 340 339 339 337 337 337 336 335 334 332 328 328 327 327 327 326 325 323 320 317 314 310 305 299 293 288 282 276 271 268 267 265 265 264 262 259
348 343 338 337 339 340 341 341 341 340 338 338 337 337 337 337 337 336 333 331 330 330 331 330 330 327 324 322 319 315 312 307 300 292 285 277 271 266 264 262 261 261 259 257
337 332 330 334 337 339 340 340 339 339 340 339 339 340 340 339 337 335 333 332 333 334 335 335 334 332 330 328 327 324 319 314 309 300 290 281 273 266 263 260 257 256 254 253
333 329 329 334 336 337 338 338 340 342 342 342 341 340 339 339 337 336 335 335 337 338 338 339 338 337 335 334 333 331 327 323 318 310 299 287 277 268 262 258 255 252 250 248
330 327 327 330 332 333 338 342 343 343 342 341 340 339 339 340 339 338 337 338 339 340 341 342 342 341 340 339 338 338 335 332 328 321 311 299 283 270 262 257 253 250 247 244
325 320 322 325 330 336 341 343 342 341 339 339 340 340 341 341 341 340 339 339 341 343 344 346 346 346 345 345 345 344 343 341 337 332 323 314 298 278 264 255 250 245 241 239
321 318 322 328 334 338 339 340 340 340 340 340 341 342 342 343 343 342 341 342 344 345 346 349 351 351 351 350 350 351 351 350 347 344 337 327 314 291 269 254 245 237 233 231
319 322 327 331 333 335 337 339 340 341 341 342 343 344 344 345 345 344 343 344 346 348 350 352 354 356 356 355 356 357 359 359 358 354 348 340 329 309 280 251 235 227 224 222
Height
5875 5876 5876 5877 5876 5876 5876 5876 5876 5877 5877 5877 5875 5874 5874 5874 5874 5874 5873 5870 5867 5863 5861 5858 5854 5850 5845 5838 5831 5825 5819 5813 5810 5810 5812 5814 5816 5817 5818 5818 5817 5817 5816 5816
5872 5872 5873 5873 5873 5873 5873 5873 5873 5874 5874 5873 5872 5871 5870 5870 5870 5870 5868 5866 5863 5859 5857 5854 5850 5845 5841 5836 5828 5822 5816 5813 5811 5810 5810 5811 5810 5811 5812 5813 5812 5811 5810 5810
5869 5870 5870 5871 5871 5870 5870 5870 5869 5870 5870 5870 5869 5868 5867 5867 5866 5864 5862 5859 5856 5853 5851 5848 5844 5840 5836 5832 5827 5822 5816 5813 5810 5808 5806 5805 5804 5805 5806 5806 5805 5804 5804 5804
5868 5869 5869 5869 5869 5868 5867 5867 5866 5866 5866 5867 5867 5864 5863 5862 5860 5858 5855 5852 5849 5847 5844 5842 5839 5835 5831 5826 5821 5817 5813 5809 5806 5803 5802 5801 5800 5799 5799 5799 5799 5798 5798 5797
5868 5868 5868 5868 5867 5866 5865 5864 5863 5863 5862 5863 5862 5860 5858 5855 5852 5849 5847 5844 5841 5839 5836 5834 5832 5828 5824 5819 5814 5810 5807 5804 5801 5798 5797 5796 5794 5793 5793 5792 5792 5792 5791 5791
5868 5868 5868 5867 5866 5865 5863 5862 5861 5860 5860 5860 5858 5856 5854 5850 5846 5842 5840 5837 5833 5831 5828 5826 5823 5819 5815 5810 5806 5802 5799 5796 5794 5792 5790 5789 5788 5787 5786 5784 5784 5784 5784 5784
5867 5868 5867 5866 5864 5864 5862 5861 5860 5858 5857 5856 5854 5852 5850 5846 5842 5839 5835 5832 5828 5825 5821 5817 5813 5809 5804 5800 5796 5792 5789 5787 5784 5782 5780 5779 5778 5777 5776 5775 5774 5774 5774 5774
5868 5867 5866 5864 5862 5861 5860 5859 5858 5856 5854 5852 5850 5847 5845 5841 5837 5834 5830 5826 5822 5817 5812 5807 5803 5798 5794 5790 5786 5782 5779 5775 5772 5769 5767 5765 5764 5763 5762 5762 5761 5761 5761 5762
5867 5866 5864 5862 5861 5860 5859 5858 5856 5854 5851 5849 5846 5844 5840 5835 5832 5827 5822 5817 5812 5806 5801 5794 5788 5782 5777 5774 5770 5767 5764 5761 5758 5754 5751 5749 5747 5746 5746 5745 5745 5746 5746 5747
5866 5865 5864 5862 5861 5859 5857 5855 5853 5851 5848 5845 5842 5839 5835 5831 5826 5821 5815 5809 5803 5797 5791 5783 5776 5769 5763 5756 5751 5746 5744 5742 5739 5736 5733 5729 5727 5725 5724 5725 5726 5727 5728 5730
5865 5864 5863 5861 5859 5857 5855 5853 5850 5847 5844 5840 5837 5836 5830 5825 5820 5815 5808 5802 5796 5789 5782 5775 5767 5759 5750 5741 5732 5725 5720 5716 5713 5711 5709 5706 5704 5702 5702 5702 5703 5705 5707 5710
5864 5863 5860 5859 5856 5853 5852 5850 5847 5844 5840 5836 5832 5831 5823 5818 5812 5805 5799 5791 5784 5777 5770 5762 5754 5745 5736 5727 5717 5707 5698 5691 5686 5682 5679 5677 5675 5674 5674 5676 5677 5680 5683 5686
5863 5861 5858 5856 5855 5851 5849 5846 5843 5840 5836 5832 5827 5826 5817 5810 5804 5797 5790 5782 5773 5765 5757 5748 5739 5730 5720 5711 5701 5691 5682 5673 5665 5659 5654 5651 5648 5646 5646 5647 5649 5652 5656 5660
5861 5858 5855 5853 5850 5847 5845 5843 5840 5837 5833 5828 5823 5817 5811 5804 5798 5790 5782 5773 5764 5755 5745 5736 5726 5716 5706 5697 5687 5678 5669 5660 5652 5645 5639 5634 5629 5626 5624 5624 5624 5626 5630 5633
5860 5857 5853 5850 5847 5845 5842 5839 5836 5832 5828 5823 5817 5811 5804 5797 5790 5781 5772 5762 5753 5744 5734 5723 5713 5702 5692 5683 5674 5665 5656 5648 5640 5633 5627 5621 5617 5614 5611 5610 5609 5609 5610 5611
5859 5856 5852 5849 5847 5844 5841 5837 5832 5828 5823 5818 5812 5806 5799 5791 5783 5773 5763 5753 5743 5732 5720 5709 5698 5688 5678 5669 5660 5651 5642 5634 5626 5619 5613 5608 5604 5601 5599 5597 5596 5596 5596 5596
5857 5855 5852 5849 5845 5843 5839 5834 5828 5822 5817 5811 5804 5798 5789 5782 5773 5762 5750 5739 5727 5716 5705 5694 5684 5674 5664 5654 5644 5634 5624 5615 5607 5601 5596 5591 5588 5585 5584 5583 5582 5582 5583 5583
5855 5851 5848 5846 5844 5839 5837 5829 5822 5815 5809 5803 5797 5789 5780 5770 5762 5751 5738 5726 5715 5704 5693 5682 5671 5661 5649 5637 5625 5614 5604 5594 5585 5579 5574 5570 5568 5566 5566 5566 5566 5567 5568 5570
5851 5848 5845 5842 5838 5835 5830 5824 5817 5810 5803 5796 5789 5781 5772 5763 5754 5744 5729 5715 5703 5692 5681 5670 5658 5645 5632 5619 5605 5592 5581 5570 5561 5555 5550 5547 5545 5545 5546 5547 5549 5551 5553 5555
5849 5846 5844 5839 5835 5830 5826 5819 5811 5805 5798 5790 5782 5773 5763 5752 5741 5732 5718 5705 5694 5683 5671 5659 5646 5632 5617 5602 5586 5572 5559 5546 5537 5530 5526 5524 5523 5524 5525 5528 5531 5534 5537 5540
5849 5845 5841 5836 5830 5825 5820 5813 5807 5801 5794 5784 5773 5763 5752 5742 5731 5720 5708 5697 5685 5674 5662 5649 5635 5619 5603 5587 5570 5555 5541 5528 5518 5510 5505 5502 5502 5502 5505 5509 5513 5517 5521 5525
5845 5841 5836 5830 5825 5822 5814 5808 5801 5794 5784 5774 5765 5756 5747 5736 5724 5712 5699 5688 5677 5666 5653 5640 5625 5609 5592 5574 5557 5542 5528 5515 5503 5494 5488 5484 5483 5483 5486 5490 5495 5500 5505 5510
5841 5837 5831 5827 5823 5816 5809 5800 5792 5784 5777 5769 5761 5751 5741 5730 5718 5705 5693 5681 5670 5658 5646 5631 5616 5600 5583 5565 5548 5532 5518 5505 5493 5483 5476 5471 5468 5468 5471 5475 5480 5485 5491 5496
5838 5833 5828 5823 5817 5810 5803 5796 5789 5782 5774 5766 5757 5746 5735 5723 5711 5698 5686 5675 5664 5652 5639 5625 5609 5593 5576 5559 5542 5526 5511 5498 5486 5476 5468 5463 5459 5458 5459 5462 5467 5473 5478 5484
5833 5828 5824 5819 5813 5807 5801 5794 5787 5780 5771 5762 5752 5741 5729 5717 5705 5692 5680 5669 5658 5646 5633 5619 5603 5587 5570 5553 5537 5522 5507 5494 5482 5471 5463 5457 5454 5452 5452 5454 5458 5463 5468 5474
5827 5823 5819 5814 5809 5803 5797 5790 5783 5775 5766 5756 5746 5735 5723 5711 5699 5687 5675 5664 5654 5642 5629 5615 5600 5584 5567 5550 5535 5520 5506 5493 5481 5470 5461 5454 5450 5448 5448 5449 5452 5456 5461 5467